{"data":{"norad_id":43802,"epoch":"2026-06-12T02:35:05.662752Z","epoch_age_seconds":8688300,"freshness":"OLD","line1":"1 43802U 18099AW  26163.10770443  .00720066  30311-3  61473-3 0  9994","line2":"2 43802  96.9045 212.5387 0007304 218.4724 141.6042 16.13516080422166","mean_motion":16.1351608,"eccentricity":0.0007304,"inclination_deg":96.9045,"raan_deg":212.5387,"arg_perigee_deg":218.4724,"mean_anomaly_deg":141.6042,"bstar":0.00061473,"rev_number":42216,"period_min":89.246089199185,"perigee_km":232.38342582614,"apogee_km":242.04713243549,"semimajor_km":6615.3522791308,"source":"CELESTRAK","updated_at":"2026-06-13T09:00:32.568681Z"}}